Printer-friendly version

IAU Minor Planet Center

Minor Planet Center

MPEC 2002-A80: 2002 AL14

The following Minor Planet Electronic Circular may be linked-to from your own Web pages, but must not otherwise be redistributed electronically.


Read MPEC 2002-A79 Read MPEC 2002-A81


M.P.E.C. 2002-A80                                Issued 2002 Jan. 13, 17:57 UT

     The Minor Planet Electronic Circulars contain information on unusual
         minor planets and routine data on comets.  They are published
   on behalf of Commission 20 of the International Astronomical Union by the
          Minor Planet Center, Smithsonian Astrophysical Observatory,
                          Cambridge, MA 02138, U.S.A.

             Prepared using the Tamkin Foundation Computer Network

                              MPC@CFA.HARVARD.EDU
          URL http://cfa-www.harvard.edu/iau/mpc.html  ISSN 1523-6714

                                   2002 AL14

Observations:
     K02A14L* C2002 01 11.42701 13 29 58.32 +01 22 55.5          18.8        704
     K02A14L  C2002 01 11.44320 13 30 01.52 +01 23 19.0          19.5        704
     K02A14L  C2002 01 11.45944 13 30 04.72 +01 23 41.2          19.5        704
     K02A14L  C2002 01 11.47541 13 30 07.91 +01 24 03.1          19.2        704
     K02A14L  C2002 01 11.49161 13 30 11.15 +01 24 25.7          19.8        704
     K02A14L  C2002 01 12.45758 13 33 26.69 +01 47 13.0          19.4        704
     K02A14L  C2002 01 12.47327 13 33 29.85 +01 47 35.2          19.3        704
     K02A14L  C2002 01 12.48861 13 33 32.85 +01 47 56.9          18.6        704
     K02A14L  C2002 01 12.50403 13 33 35.91 +01 48 18.3          19.0        704
     K02A14L  C2002 01 13.52186 13 37 02.42 +02 12 54.9          18.3 R      711
     K02A14L  C2002 01 13.52773 13 37 03.57 +02 13 03.4          18.2 R      711
     K02A14L  C2002 01 13.53357 13 37 04.72 +02 13 11.7          18.4 R      711

Observer details:
704 Lincoln Laboratory ETS, New Mexico.  Observers M. Blythe, F. Shelly,
    M. Bezpalko, R. Huber, L. Manguso, S. Adams, J. Piscitelli.  Measurers
    J. Stuart, R. Sayer, J. B. Evans, H. Viggh.  1.0-m f/2.15 reflector + CCD.
711 McDonald Observatory.  Observers P. J. Shelus, J. G. Ries.  0.76-m
    reflector + CCD.

Orbital elements:
2002 AL14
Epoch 2002 Jan. 6.0 TT = JDT 2452280.5                  MPC
M 143.70292              (2000.0)            P               Q
n   1.06230092     Peri.  214.95753     +0.90904930     +0.30822827
a   0.9512712      Node   124.64086     -0.26004609     +0.94544950
e   0.1791385      Incl.   19.92667     -0.32558470     +0.10545410
P   0.93           H   17.8           G   0.15
From 12 observations 2002 Jan. 11-13.

Ephemeris:
2002 AL14                a,e,i = 0.95, 0.18, 20                  q = 0.7809
Date    TT    R. A. (2000) Decl.     Delta      r     Elong.  Phase     V
2002 01 06    13 11.85   -00 35.1    0.510    1.097    88.7    63.6    18.8
2002 01 16    13 45.47   +03 15.4    0.474    1.109    92.3    62.4    18.6
2002 01 26    14 20.14   +08 02.9    0.442    1.117    95.6    61.3    18.5
2002 02 05    14 55.79   +13 44.4    0.415    1.121    98.0    60.5    18.3
2002 02 15    15 32.14   +20 08.1    0.394    1.121    99.3    60.4    18.2
2002 02 25    16 08.87   +26 51.3    0.381    1.116    99.2    61.1    18.1
2002 03 07    16 45.84   +33 26.6    0.375    1.108    97.9    62.5    18.1
2002 03 17    17 22.93   +39 32.2    0.373    1.095    95.4    64.8    18.1
2002 03 27    18 00.39   +44 52.0    0.372    1.078    92.2    67.6    18.2
2002 04 06    18 39.16   +49 19.5    0.372    1.058    88.4    71.0    18.3
2002 04 16    19 20.64   +52 53.4    0.368    1.034    84.3    75.0    18.3
2002 04 26    20 07.06   +55 28.2    0.360    1.007    79.9    79.5    18.4
2002 05 06    21 01.43   +56 52.0    0.348    0.978    74.9    85.0    18.4
2002 05 16    22 05.69   +56 36.7    0.333    0.947    69.4    91.4    18.5
2002 05 26    23 18.46   +53 52.4    0.317    0.915    63.2    98.8    18.7
2002 06 05    00 33.33   +47 54.2    0.309    0.883    56.6   106.5    18.9
2002 06 15    01 42.29   +38 57.3    0.314    0.853    50.8   112.6    19.3

     Concern has been expressed that observers are not continuing to make
follow-up observations of NEOs after the initial presentations of data in
these Circulars.  Indeed, particularly when there are many entries on the NEO
Confirmation Page, it can be difficult to decide when to transfer them from
the NEOCP to an MPEC announcement, for one also needs to ensure that genuine
and possibly dangerous NEOs on the NEOCP are recognized and do not get lost.
Post-MPEC follow-up observations are particularly desirable in a case like
this, where the large elongation from opposition leads to a clear double
solution.  Here the Aten-type solution has been selected.  It is at least as
likely that this object is significantly farther away and in a cometary orbit:
attention to the object's physical appearance is therefore also appropriate.

Brian G. Marsden             (C) Copyright 2002 MPC           M.P.E.C. 2002-A80

Read MPEC 2002-A79 Read MPEC 2002-A81


Our Web policy. Index to the CBAT/MPC/ICQ pages.


Valid HTML 4.01!